INTELSAT 30 (IS-30)

Last updated on Wed Jul 16 2025 00:02:47 GMT+0000 (Coordinated Universal Time)

1 40271U 14062A 25195.61169978 -.00000143 00000+0 00000+0 0 9993 2 40271 0.0102 38.4632 0001643 357.9290 21.4792 1.00271112 3399
UTC large
Height (km)
Speed (km/s)
/
Latitude / Longitude
Inclination (degrees)
Orbital Period (minutes)
Azimuth
Elevation
Range (km)
Doppler Factor

Next 0 passes for location: London (51.5072 / 0.1276)

Sorry there are no passes over London.